Location: Three Forks Visitor's Center
(58.3672°N, 155.3776°W)
Time: 14:49:34
(UTC-08:00)

Envisat - Visible Passes

Search period start: 21 April 2018 00:00
Search period end: 01 May 2018 00:00
Orbit: 764 x 766 km, 98.2° (Epoch: 21 April)

Date Brightness Start Highest point End Pass type
(mag) Time Alt. Az. Time Alt. Az. Time Alt. Az.
21 Apr 5.5 22:52:29 10° SW 22:56:23 22° W 23:00:20 10° NW visible
23 Apr 5.7 23:19:32 10° WSW 23:22:22 15° W 23:25:13 10° NW visible
24 Apr 5.2 22:40:53 10° SSW 22:45:06 26° W 22:49:22 10° NNW visible
26 Apr 5.6 23:07:41 10° SW 23:11:02 18° W 23:14:25 10° NW visible
28 Apr 5.9 23:35:24 10° W 23:37:05 11° WNW 23:38:45 10° WNW visible
29 Apr 5.5 22:55:57 10° SW 22:59:44 21° W 23:03:32 10° NW visible
